Location: Kervinic
(48.4279°N, 4.7373°W)
Time: 09:13:56
(UTC+00:00)

Meteor 1-11 - Pass Details

Date: 09 April 2020
Orbit: 841 x 886 km, 81.2° (Epoch: 01 June)

Event Time Altitude Azimuth Distance (km) Brightness Sun altitude
Rises 19:33:51 0° 350° (N) 3,486 7.8 -5.9°
Reaches altitude 10° 19:36:22 10° 354° (N) 2,538 7.1 -6.3°
Maximum altitude 19:42:04 60° 75° (ENE) 988 4.4 -7.2°
Drops below altitude 10° 19:47:40 10° 155° (SSE) 2,490 6.2 -8.1°
Sets 19:50:06 0° 159° (SSE) 3,415 6.9 -8.5°
